Flag for Lithuania Weather past 2 weeks in Vilnius, Lithuania

Now
39 °F

Clear.


Feels Like: 31 °F
Forecast: 38 / 47 °F
Wind: 14 mph from Southwest

Location: Vilnius Airport

Current Time: Mar 31, 2015 at 2:40:20 AM

Latest Report: Mar 31, 2015 at 2:20 AM


Visibility: 10 mi

Pressure: 29.30 "Hg

Humidity: 87%

Dew point: 36 °F

Location of VilniusLocation

Historic Weather in Vilnius — Graph

°F

Vilnius temperature yesterday

Maximum temperature yesterday: 46 °F (at 5:20 PM)
Minimum temperature yesterday: 32 °F (at 5:20 AM)
Average temperature yesterday: 37 °F

Past Weeks' High & Low Weather Summary

 TemperatureHumidityPressure
High63 °F (Mar 27, 3:50 PM)100% (Mar 21, 10:20 PM)30.92 "Hg (Mar 21, 10:20 PM)
Low19 °F (Mar 22, 6:20 AM)17% (Mar 19, 1:20 PM)29.09 "Hg (Mar 30, 2:20 PM)
Average41 °F59%30.08 "Hg
* Reported Mar 16 12:20 AM — Mar 31 1:20 AM, Vilnius, Weather by CustomWeather, © 2015

Note: Actual official high and low records may vary slightly from our data, if they occured in-between our weather recording intervals... More about our weather records

Advertising

Vilnius weather history for previous 24 hours

 ConditionsComfort  
Time TempWeatherWind HumidityBarometerVisibility
1:20 AM
Tue, Mar 31
39 °FClear.13 mph87%29.27 "Hg10 mi
12:50 AM39 °FClear.15 mph87%29.27 "Hg10 mi
12:20 AM39 °FClear.13 mph87%29.27 "Hg10 mi
11:20 PM
Mon, Mar 30
39 °FClear.15 mph87%29.24 "Hg10 mi
10:50 PM41 °FClear.13 mph81%29.24 "Hg10 mi
10:20 PM39 °FClear.13 mph87%29.24 "Hg10 mi
9:50 PM41 °FClear.14 mph81%29.24 "Hg10 mi
9:20 PM41 °FClear.15 mph81%29.24 "Hg10 mi
8:50 PM41 °FScattered clouds.15 mph87%29.21 "HgN/A
8:20 PM41 °FBroken clouds.13 mph87%29.21 "HgN/A
7:50 PM41 °FBroken clouds.13 mph87%29.18 "HgN/A
7:20 PM43 °FBroken clouds.16 mph87%29.18 "HgN/A
6:50 PM45 °FScattered showers. Broken clouds.15 mph81%29.15 "HgN/A
6:20 PM45 °FBroken clouds.10 mph87%29.15 "HgN/A
5:54 PM45 °FRain showers. Broken clouds.8 mph87%29.15 "Hg2 mi
5:20 PM46 °FScattered showers. Broken clouds.14 mph82%29.12 "Hg5 mi
4:56 PM43 °FRain showers. Broken clouds.15 mph87%29.15 "Hg1 mi
4:20 PM45 °FBroken clouds.14 mph87%29.12 "Hg5 mi
3:50 PM45 °FBroken clouds.14 mph87%29.12 "Hg5 mi
3:20 PM41 °FLight rain. More clouds than sun.15 mph93%29.12 "Hg4 mi
2:50 PM39 °FLight rain. Fog.17 mph100%29.12 "Hg2 mi
2:20 PM39 °FLight rain. Fog.18 mph93%29.09 "Hg2 mi
1:50 PM37 °FLight rain. Fog.18 mph93%29.12 "Hg2 mi
1:20 PM37 °FLight rain. Fog.20 mph93%29.12 "Hg2 mi
12:50 PM36 °FLight rain. Fog.20 mph93%29.12 "Hg2 mi
12:20 PM36 °FLight rain. Fog.20 mph93%29.12 "Hg2 mi
11:50 AM36 °FLight rain. Fog.20 mph93%29.15 "Hg2 mi
11:20 AM36 °FLight rain. Fog.20 mph93%29.15 "Hg2 mi
10:50 AM34 °FLight rain. Fog.18 mph93%29.18 "Hg2 mi
10:20 AM34 °FLight rain. Fog.20 mph93%29.18 "Hg2 mi
9:50 AM34 °FLight rain. Fog.20 mph93%29.21 "Hg2 mi
9:20 AM34 °FLight rain. Fog.20 mph93%29.21 "Hg2 mi
8:50 AM34 °FLight rain. Fog.21 mph93%29.24 "Hg2 mi
8:20 AM34 °FRain. Fog.21 mph87%29.24 "Hg2 mi
7:50 AM34 °FLight rain. Fog.18 mph87%29.27 "Hg2 mi
7:20 AM32 °FLight rain. Ice fog.18 mph93%29.30 "Hg2 mi
6:50 AM32 °FIce fog.18 mph93%29.30 "Hg2 mi
6:20 AM34 °FFog.17 mph87%29.33 "Hg2 mi
5:50 AM32 °FIce fog.20 mph93%29.33 "Hg2 mi
5:20 AM32 °FIce fog.17 mph93%29.36 "Hg2 mi
4:50 AM34 °FFog.16 mph87%29.36 "Hg2 mi
4:20 AM34 °FFog.17 mph87%29.39 "Hg2 mi
3:50 AM34 °FFog.15 mph87%29.42 "Hg2 mi
3:20 AM34 °FFog.16 mph87%29.42 "Hg2 mi
2:50 AM34 °FFog.16 mph87%29.45 "Hg2 mi
2:20 AM34 °FFog.16 mph87%29.47 "Hg2 mi
Weather by CustomWeather, © 2015

See weather overviewHow to use our weather pages